Time,TemperatureF,DewpointF,PressureIn,WindDirection,WindDirectionDegrees,WindSpeedMPH,WindSpeedGustMPH,Humidity,HourlyPrecipIn,Conditions,Clouds,dailyrainin,SoftwareType,DateUTC
2013-02-07 00:02:00,35.0,-99.9,30.34,NNE,20,4.0,4.0,-999,-99.99,,,-99.99,,2013-02-07 05:02:00,
2013-02-07 00:12:00,35.0,-99.9,30.34,NNE,20,4.0,4.0,-999,-99.99,,,-99.99,,2013-02-07 05:12:00,
2013-02-07 00:22:00,35.0,-99.9,30.33,North,10,2.0,4.0,-999,-99.99,,,-99.99,,2013-02-07 05:22:00,
2013-02-07 00:32:00,35.0,-99.9,30.33,North,10,2.0,4.0,-999,-99.99,,,-99.99,,2013-02-07 05:32:00,
2013-02-07 00:43:00,34.0,-99.9,30.33,North,10,2.0,2.0,-999,-99.99,,,-99.99,,2013-02-07 05:43:00,
2013-02-07 00:52:00,34.0,-99.9,30.33,North,360,2.0,2.0,-999,-99.99,,,-99.99,,2013-02-07 05:52:00,
2013-02-07 01:02:00,34.0,-99.9,30.33,NNW,340,2.0,2.0,-999,-99.99,,,-99.99,,2013-02-07 06:02:00,
2013-02-07 01:11:00,34.0,-99.9,30.33,NNW,340,2.0,2.0,-999,-99.99,,,-99.99,,2013-02-07 06:11:00,
2013-02-07 01:22:00,33.0,-99.9,30.35,WNW,290,4.0,4.0,-999,-99.99,,,-99.99,,2013-02-07 06:22:00,
2013-02-07 01:32:00,34.0,-99.9,30.35,WNW,290,2.0,4.0,-999,-99.99,,,-99.99,,2013-02-07 06:32:00,
2013-02-07 01:43:00,34.0,-99.9,30.36,WNW,300,4.0,4.0,-999,-99.99,,,-99.99,,2013-02-07 06:43:00,
2013-02-07 01:53:00,33.0,-99.9,30.36,NW,320,4.0,7.0,-999,-99.99,,,-99.99,,2013-02-07 06:53:00,
2013-02-07 02:02:00,32.0,-99.9,30.36,NW,310,7.0,7.0,-999,-99.99,,,-99.99,,2013-02-07 07:02:00,
2013-02-07 02:12:00,32.0,-99.9,30.36,NW,310,7.0,7.0,-999,-99.99,,,-99.99,,2013-02-07 07:12:00,
2013-02-07 02:22:00,32.0,-99.9,30.37,WNW,300,4.0,7.0,-999,-99.99,,,-99.99,,2013-02-07 07:22:00,
2013-02-07 02:32:00,32.0,-99.9,30.38,WNW,290,4.0,4.0,-999,-99.99,,,-99.99,,2013-02-07 07:32:00,
2013-02-07 02:42:00,32.0,-99.9,30.38,WNW,290,4.0,4.0,-999,-99.99,,,-99.99,,2013-02-07 07:42:00,
2013-02-07 02:53:00,32.0,-99.9,30.38,WNW,300,4.0,4.0,-999,-99.99,,,-99.99,,2013-02-07 07:53:00,
2013-02-07 03:02:00,32.0,-99.9,30.38,NW,310,4.0,4.0,-999,-99.99,,,-99.99,,2013-02-07 08:02:00,
2013-02-07 03:11:00,32.0,-99.9,30.38,NW,310,4.0,4.0,-999,-99.99,,,-99.99,,2013-02-07 08:11:00,
2013-02-07 03:22:00,32.0,-99.9,30.38,WNW,300,4.0,4.0,-999,-99.99,,,-99.99,,2013-02-07 08:22:00,
2013-02-07 03:32:00,32.0,-99.9,30.38,WNW,300,4.0,4.0,-999,-99.99,,,-99.99,,2013-02-07 08:32:00,
2013-02-07 03:42:00,32.0,-99.9,30.38,WNW,300,4.0,4.0,-999,-99.99,,,-99.99,,2013-02-07 08:42:00,
2013-02-07 03:52:00,31.0,-99.9,30.38,NW,320,4.0,4.0,-999,-99.99,,,-99.99,,2013-02-07 08:52:00,
2013-02-07 04:02:00,31.0,-99.9,30.37,NW,310,2.0,4.0,-999,-99.99,,,-99.99,,2013-02-07 09:02:00,
2013-02-07 04:11:00,32.0,-99.9,30.36,NW,310,2.0,2.0,-999,-99.99,,,-99.99,,2013-02-07 09:11:00,
2013-02-07 04:22:00,32.0,-99.9,30.36,NNW,340,2.0,2.0,-999,-99.99,,,-99.99,,2013-02-07 09:22:00,
2013-02-07 04:32:00,32.0,-99.9,30.36,NNE,20,2.0,4.0,-999,-99.99,,,-99.99,,2013-02-07 09:32:00,
2013-02-07 04:42:00,32.0,-99.9,30.36,NNE,30,4.0,4.0,-999,-99.99,,,-99.99,,2013-02-07 09:42:00,
2013-02-07 04:52:00,32.0,-99.9,30.36,NE,40,4.0,4.0,-999,-99.99,,,-99.99,,2013-02-07 09:52:00,
2013-02-07 05:02:00,32.0,-99.9,30.36,NE,40,4.0,4.0,-999,-99.99,,,-99.99,,2013-02-07 10:02:00,
2013-02-07 05:11:00,32.0,-99.9,30.36,NE,40,4.0,4.0,-999,-99.99,,,-99.99,,2013-02-07 10:11:00,
2013-02-07 05:22:00,32.0,-99.9,30.36,NNE,30,4.0,7.0,-999,-99.99,,,-99.99,,2013-02-07 10:22:00,
2013-02-07 05:32:00,32.0,-99.9,30.37,NNE,30,2.0,4.0,-999,-99.99,,,-99.99,,2013-02-07 10:32:00,
2013-02-07 05:42:00,32.0,-99.9,30.38,NNE,20,2.0,4.0,-999,-99.99,,,-99.99,,2013-02-07 10:42:00,
2013-02-07 05:52:00,32.0,-99.9,30.38,NNE,30,4.0,4.0,-999,-99.99,,,-99.99,,2013-02-07 10:52:00,
2013-02-07 06:02:00,32.0,-99.9,30.38,NNE,30,4.0,7.0,-999,-99.99,,,-99.99,,2013-02-07 11:02:00,
2013-02-07 06:12:00,32.0,-99.9,30.38,NNE,30,4.0,7.0,-999,-99.99,,,-99.99,,2013-02-07 11:12:00,
2013-02-07 06:23:00,32.0,-99.9,30.38,NE,40,4.0,7.0,-999,-99.99,,,-99.99,,2013-02-07 11:23:00,
2013-02-07 06:32:00,33.0,-99.9,30.39,NE,50,4.0,7.0,-999,-99.99,,,-99.99,,2013-02-07 11:32:00,
2013-02-07 06:44:00,33.0,-99.9,30.39,East,80,7.0,9.0,-999,-99.99,,,-99.99,,2013-02-07 11:44:00,
2013-02-07 06:53:00,34.0,-99.9,30.40,East,80,7.0,9.0,-999,-99.99,,,-99.99,,2013-02-07 11:53:00,
2013-02-07 07:02:00,34.0,-99.9,30.40,East,80,7.0,9.0,-999,-99.99,,,-99.99,,2013-02-07 12:02:00,
2013-02-07 07:12:00,34.0,-99.9,30.40,East,80,7.0,9.0,-999,-99.99,,,-99.99,,2013-02-07 12:12:00,
2013-02-07 07:22:00,34.0,-99.9,30.41,East,80,7.0,9.0,-999,-99.99,,,-99.99,,2013-02-07 12:22:00,
2013-02-07 07:33:00,34.0,-99.9,30.41,East,80,7.0,9.0,-999,-99.99,,,-99.99,,2013-02-07 12:33:00,
2013-02-07 07:42:00,33.0,-99.9,30.42,East,100,7.0,9.0,-999,-99.99,,,-99.99,,2013-02-07 12:42:00,
2013-02-07 07:53:00,33.0,-99.9,30.42,ESE,120,4.0,7.0,-999,-99.99,,,-99.99,,2013-02-07 12:53:00,
2013-02-07 08:03:00,33.0,-99.9,30.42,East,100,4.0,4.0,-999,-99.99,,,-99.99,,2013-02-07 13:03:00,
2013-02-07 08:12:00,33.0,-99.9,30.42,East,100,4.0,4.0,-999,-99.99,,,-99.99,,2013-02-07 13:12:00,
2013-02-07 08:22:00,33.0,-99.9,30.42,East,80,4.0,7.0,-999,-99.99,,,-99.99,,2013-02-07 13:22:00,
2013-02-07 08:33:00,33.0,-99.9,30.42,East,80,7.0,7.0,-999,-99.99,,,-99.99,,2013-02-07 13:33:00,
2013-02-07 08:42:00,33.0,-99.9,30.43,ENE,70,7.0,9.0,-999,-99.99,,,-99.99,,2013-02-07 13:42:00,
2013-02-07 08:52:00,33.0,-99.9,30.42,East,80,9.0,9.0,-999,-99.99,,,-99.99,,2013-02-07 13:52:00,
2013-02-07 09:02:00,33.0,-99.9,30.43,East,80,9.0,9.0,-999,-99.99,,,-99.99,,2013-02-07 14:02:00,
2013-02-07 09:12:00,33.0,-99.9,30.43,East,80,9.0,9.0,-999,-99.99,,,-99.99,,2013-02-07 14:12:00,
2013-02-07 09:22:00,33.0,-99.9,30.43,ENE,70,9.0,9.0,-999,-99.99,,,-99.99,,2013-02-07 14:22:00,
2013-02-07 09:32:00,33.0,-99.9,30.43,East,80,9.0,9.0,-999,-99.99,,,-99.99,,2013-02-07 14:32:00,
2013-02-07 09:42:00,33.0,-99.9,30.43,East,80,9.0,9.0,-999,-99.99,,,-99.99,,2013-02-07 14:42:00,
2013-02-07 09:53:00,34.0,-99.9,30.43,ENE,70,9.0,11.0,-999,-99.99,,,-99.99,,2013-02-07 14:53:00,
2013-02-07 10:02:00,34.0,-99.9,30.44,East,80,9.0,11.0,-999,-99.99,,,-99.99,,2013-02-07 15:02:00,
2013-02-07 10:11:00,34.0,-99.9,30.44,East,80,9.0,11.0,-999,-99.99,,,-99.99,,2013-02-07 15:11:00,
2013-02-07 10:22:00,34.0,-99.9,30.44,East,80,7.0,7.0,-999,-99.99,,,-99.99,,2013-02-07 15:22:00,
2013-02-07 10:32:00,34.0,-99.9,30.44,East,80,7.0,9.0,-999,-99.99,,,-99.99,,2013-02-07 15:32:00,
2013-02-07 10:42:00,34.0,-99.9,30.44,East,80,7.0,9.0,-999,-99.99,,,-99.99,,2013-02-07 15:42:00,
2013-02-07 10:53:00,34.0,-99.9,30.43,East,80,7.0,9.0,-999,-99.99,,,-99.99,,2013-02-07 15:53:00,
2013-02-07 11:02:00,34.0,-99.9,30.43,East,80,7.0,7.0,-999,-99.99,,,-99.99,,2013-02-07 16:02:00,
2013-02-07 11:11:00,34.0,-99.9,30.43,East,80,7.0,7.0,-999,-99.99,,,-99.99,,2013-02-07 16:11:00,
2013-02-07 11:22:00,35.0,-99.9,30.43,ESE,110,4.0,7.0,-999,-99.99,,,-99.99,,2013-02-07 16:22:00,
2013-02-07 11:32:00,35.0,-99.9,30.43,ESE,110,7.0,9.0,-999,-99.99,,,-99.99,,2013-02-07 16:32:00,
2013-02-07 11:42:00,35.0,-99.9,30.42,ESE,120,7.0,9.0,-999,-99.99,,,-99.99,,2013-02-07 16:42:00,
2013-02-07 11:52:00,35.0,-99.9,30.42,ESE,120,7.0,11.0,-999,-99.99,,,-99.99,,2013-02-07 16:52:00,
2013-02-07 12:01:00,36.0,-99.9,30.42,ESE,120,9.0,11.0,-999,-99.99,,,-99.99,,2013-02-07 17:01:00,
2013-02-07 12:11:00,36.0,-99.9,30.42,ESE,120,9.0,11.0,-999,-99.99,,,-99.99,,2013-02-07 17:11:00,
2013-02-07 12:22:00,36.0,-99.9,30.40,ESE,120,9.0,11.0,-999,-99.99,,,-99.99,,2013-02-07 17:22:00,
2013-02-07 12:32:00,36.0,-99.9,30.40,ESE,120,9.0,11.0,-999,-99.99,,,-99.99,,2013-02-07 17:32:00,
2013-02-07 12:43:00,36.0,-99.9,30.39,ESE,110,11.0,13.0,-999,-99.99,,,-99.99,,2013-02-07 17:43:00,
2013-02-07 12:52:00,36.0,-99.9,30.38,ESE,110,9.0,11.0,-999,-99.99,,,-99.99,,2013-02-07 17:52:00,
2013-02-07 13:02:00,36.0,-99.9,30.38,ESE,110,9.0,11.0,-999,-99.99,,,-99.99,,2013-02-07 18:02:00,
2013-02-07 13:12:00,36.0,-99.9,30.37,ESE,110,9.0,11.0,-999,-99.99,,,-99.99,,2013-02-07 18:12:00,
2013-02-07 13:23:00,36.0,-99.9,30.37,ESE,110,9.0,9.0,-999,-99.99,,,-99.99,,2013-02-07 18:23:00,
2013-02-07 13:32:00,37.0,-99.9,30.37,ESE,110,7.0,9.0,-999,-99.99,,,-99.99,,2013-02-07 18:32:00,
2013-02-07 13:42:00,37.0,-99.9,30.37,ESE,120,7.0,9.0,-999,-99.99,,,-99.99,,2013-02-07 18:42:00,
2013-02-07 13:52:00,37.0,-99.9,30.37,ESE,110,9.0,9.0,-999,-99.99,,,-99.99,,2013-02-07 18:52:00,
2013-02-07 14:02:00,37.0,-99.9,30.36,East,100,7.0,9.0,-999,-99.99,,,-99.99,,2013-02-07 19:02:00,
2013-02-07 14:11:00,37.0,-99.9,30.36,East,100,7.0,9.0,-999,-99.99,,,-99.99,,2013-02-07 19:11:00,
2013-02-07 14:22:00,37.0,-99.9,30.35,East,100,9.0,11.0,-999,-99.99,,,-99.99,,2013-02-07 19:22:00,
2013-02-07 14:32:00,37.0,-99.9,30.34,East,90,9.0,11.0,-999,-99.99,,,-99.99,,2013-02-07 19:32:00,
2013-02-07 14:42:00,37.0,-99.9,30.34,East,100,9.0,11.0,-999,-99.99,,,-99.99,,2013-02-07 19:42:00,
2013-02-07 14:52:00,38.0,-99.9,30.33,ESE,110,7.0,9.0,-999,-99.99,,,-99.99,,2013-02-07 19:52:00,
2013-02-07 15:01:00,38.0,-99.9,30.33,East,100,7.0,9.0,-999,-99.99,,,-99.99,,2013-02-07 20:01:00,
2013-02-07 15:11:00,38.0,-99.9,30.32,East,100,7.0,9.0,-999,-99.99,,,-99.99,,2013-02-07 20:11:00,
2013-02-07 15:22:00,38.0,-99.9,30.32,East,100,7.0,9.0,-999,-99.99,,,-99.99,,2013-02-07 20:22:00,
2013-02-07 15:32:00,38.0,-99.9,30.32,East,100,7.0,7.0,-999,-99.99,,,-99.99,,2013-02-07 20:32:00,
2013-02-07 15:42:00,38.0,-99.9,30.31,East,90,7.0,7.0,-999,-99.99,,,-99.99,,2013-02-07 20:42:00,
2013-02-07 15:52:00,38.0,-99.9,30.31,ENE,70,4.0,7.0,-999,-99.99,,,-99.99,,2013-02-07 20:52:00,
2013-02-07 16:02:00,38.0,-99.9,30.31,ENE,70,4.0,7.0,-999,-99.99,,,-99.99,,2013-02-07 21:02:00,
2013-02-07 16:11:00,38.0,-99.9,30.31,East,80,4.0,4.0,-999,-99.99,,,-99.99,,2013-02-07 21:11:00,
2013-02-07 16:22:00,38.0,-99.9,30.30,East,80,4.0,4.0,-999,-99.99,,,-99.99,,2013-02-07 21:22:00,
2013-02-07 16:32:00,38.0,-99.9,30.30,East,80,4.0,4.0,-999,-99.99,,,-99.99,,2013-02-07 21:32:00,
2013-02-07 16:42:00,38.0,-99.9,30.29,ENE,60,4.0,7.0,-999,-99.99,,,-99.99,,2013-02-07 21:42:00,
2013-02-07 16:52:00,38.0,-99.9,30.29,ENE,60,4.0,7.0,-999,-99.99,,,-99.99,,2013-02-07 21:52:00,
2013-02-07 17:02:00,38.0,-99.9,30.29,East,80,4.0,4.0,-999,-99.99,,,-99.99,,2013-02-07 22:02:00,
2013-02-07 17:11:00,38.0,-99.9,30.29,East,80,4.0,4.0,-999,-99.99,,,-99.99,,2013-02-07 22:11:00,
2013-02-07 17:22:00,38.0,-99.9,30.29,ESE,120,7.0,9.0,-999,-99.99,,,-99.99,,2013-02-07 22:22:00,
2013-02-07 17:32:00,38.0,-99.9,30.29,ESE,120,7.0,9.0,-999,-99.99,,,-99.99,,2013-02-07 22:32:00,
2013-02-07 17:42:00,38.0,-99.9,30.29,ESE,110,7.0,9.0,-999,-99.99,,,-99.99,,2013-02-07 22:42:00,
2013-02-07 17:52:00,38.0,-99.9,30.30,ESE,120,9.0,11.0,-999,-99.99,,,-99.99,,2013-02-07 22:52:00,
2013-02-07 18:02:00,38.0,-99.9,30.30,ESE,120,11.0,13.0,-999,-99.99,,,-99.99,,2013-02-07 23:02:00,
2013-02-07 18:11:00,38.0,-99.9,30.30,ESE,120,11.0,13.0,-999,-99.99,,,-99.99,,2013-02-07 23:11:00,
2013-02-07 18:22:00,38.0,-99.9,30.30,East,100,9.0,11.0,-999,-99.99,,,-99.99,,2013-02-07 23:22:00,
2013-02-07 18:32:00,38.0,-99.9,30.31,East,100,9.0,11.0,-999,-99.99,,,-99.99,,2013-02-07 23:32:00,
2013-02-07 18:42:00,38.0,-99.9,30.31,East,100,9.0,11.0,-999,-99.99,,,-99.99,,2013-02-07 23:42:00,
2013-02-07 18:52:00,38.0,-99.9,30.31,East,100,9.0,9.0,-999,-99.99,,,-99.99,,2013-02-07 23:52:00,
2013-02-07 19:02:00,38.0,-99.9,30.31,East,100,9.0,9.0,-999,-99.99,,,-99.99,,2013-02-08 00:02:00,
2013-02-07 19:11:00,38.0,-99.9,30.31,East,100,9.0,9.0,-999,-99.99,,,-99.99,,2013-02-08 00:11:00,
2013-02-07 19:22:00,38.0,-99.9,30.31,East,100,7.0,9.0,-999,-99.99,,,-99.99,,2013-02-08 00:22:00,
2013-02-07 19:32:00,38.0,-99.9,30.31,East,100,9.0,9.0,-999,-99.99,,,-99.99,,2013-02-08 00:32:00,
2013-02-07 19:42:00,38.0,-99.9,30.31,East,100,9.0,9.0,-999,-99.99,,,-99.99,,2013-02-08 00:42:00,
2013-02-07 19:53:00,38.0,-99.9,30.31,East,100,9.0,13.0,-999,-99.99,,,-99.99,,2013-02-08 00:53:00,
2013-02-07 20:02:00,37.0,-99.9,30.30,East,100,9.0,11.0,-999,-99.99,,,-99.99,,2013-02-08 01:02:00,
2013-02-07 20:11:00,37.0,-99.9,30.30,East,100,9.0,11.0,-999,-99.99,,,-99.99,,2013-02-08 01:11:00,
2013-02-07 20:21:00,37.0,-99.9,30.29,East,100,11.0,16.0,-999,-99.99,,,-99.99,,2013-02-08 01:21:00,
2013-02-07 20:32:00,37.0,-99.9,30.29,East,100,11.0,13.0,-999,-99.99,,,-99.99,,2013-02-08 01:32:00,
2013-02-07 20:42:00,37.0,-99.9,30.29,East,90,11.0,13.0,-999,-99.99,,,-99.99,,2013-02-08 01:42:00,
2013-02-07 20:52:00,37.0,-99.9,30.29,East,90,11.0,16.0,-999,-99.99,,,-99.99,,2013-02-08 01:52:00,
2013-02-07 21:01:00,37.0,-99.9,30.29,East,90,11.0,13.0,-999,-99.99,,,-99.99,,2013-02-08 02:01:00,
2013-02-07 21:11:00,37.0,-99.9,30.29,East,90,11.0,13.0,-999,-99.99,,,-99.99,,2013-02-08 02:11:00,
2013-02-07 21:22:00,37.0,-99.9,30.28,East,80,13.0,16.0,-999,-99.99,,,-99.99,,2013-02-08 02:22:00,
2013-02-07 21:32:00,36.0,-99.9,30.27,ENE,70,13.0,16.0,-999,-99.99,,,-99.99,,2013-02-08 02:32:00,
2013-02-07 21:42:00,36.0,-99.9,30.27,ENE,70,13.0,18.0,-999,-99.99,,,-99.99,,2013-02-08 02:42:00,
2013-02-07 21:53:00,36.0,-99.9,30.27,ENE,70,16.0,18.0,-999,-99.99,,,-99.99,,2013-02-08 02:53:00,
2013-02-07 22:02:00,36.0,-99.9,30.27,ENE,70,13.0,16.0,-999,-99.99,,,-99.99,,2013-02-08 03:02:00,
2013-02-07 22:12:00,36.0,-99.9,30.27,ENE,60,13.0,18.0,-999,-99.99,,,-99.99,,2013-02-08 03:12:00,
2013-02-07 22:23:00,36.0,-99.9,30.26,ENE,60,16.0,18.0,-999,-99.99,,,-99.99,,2013-02-08 03:23:00,
2013-02-07 22:32:00,36.0,-99.9,30.25,ENE,60,16.0,18.0,-999,-99.99,,,-99.99,,2013-02-08 03:32:00,
2013-02-07 22:42:00,36.0,-99.9,30.25,ENE,60,13.0,18.0,-999,-99.99,,,-99.99,,2013-02-08 03:42:00,
2013-02-07 22:52:00,36.0,-99.9,30.24,ENE,60,13.0,18.0,-999,-99.99,,,-99.99,,2013-02-08 03:52:00,
2013-02-07 23:02:00,35.0,-99.9,30.24,ENE,60,16.0,18.0,-999,-99.99,,,-99.99,,2013-02-08 04:02:00,
2013-02-07 23:11:00,35.0,-99.9,30.23,ENE,60,13.0,18.0,-999,-99.99,,,-99.99,,2013-02-08 04:11:00,
2013-02-07 23:22:00,35.0,-99.9,30.22,ENE,60,13.0,18.0,-999,-99.99,,,-99.99,,2013-02-08 04:22:00,
2013-02-07 23:32:00,35.0,-99.9,30.22,ENE,60,13.0,18.0,-999,-99.99,,,-99.99,,2013-02-08 04:32:00,
2013-02-07 23:42:00,35.0,-99.9,30.21,ENE,60,16.0,20.0,-999,-99.99,,,-99.99,,2013-02-08 04:42:00,
2013-02-07 23:52:00,35.0,-99.9,30.20,ENE,60,16.0,20.0,-999,-99.99,,,-99.99,,2013-02-08 04:52:00,